Location: Catstown
(52.4386°N, 7.2633°W)
Time: 17:14:56
(UTC+00:00)

Cosmos 2298 Rocket - Pass Details

Date: 18 September 2020
Orbit: 777 x 783 km, 74.0° (Epoch: 30 October)

Event Time Altitude Azimuth Distance (km) Brightness Sun altitude
Rises 19:58:00 0° 181° (S) 3,259 7.1 -13.0°
Reaches altitude 10° 20:00:28 10° 174° (S) 2,335 6.2 -13.4°
Maximum altitude 20:05:26 42° 105° (ESE) 1,115 4.4 -14.1°
Drops below altitude 10° 20:10:25 10° 36° (NE) 2,350 6.4 -14.8°
Sets 20:12:55 0° 30° (NNE) 3,282 7.2 -15.2°
